Weather History for Rock Springs, WY

Change the Weather History Date:

Tuesday, March 19, 2013

  Actual Average Record
Temperature  
Mean Temperature 32 °F 35 °F  
Max Temperature 44 °F 45 °F 63 °F (2004)
Min Temperature 19 °F 24 °F -1 °F (1965)
Degree Days  
Heating Degree Days 33 30  
Month to date heating degree days 534 634  
Since 1 July heating degree days 6015 6486  
Cooling Degree Days 0 0  
Month to date cooling degree days 0 0  
Year to date cooling degree days 0 0  
Moisture  
Dew Point -3 °F    
Average Humidity 30    
Maximum Humidity 50    
Minimum Humidity 10    
Precipitation  
Precipitation 0.00 in 0.03 in 0.38 in (1994)
Month to date precipitation T 0.38  
Year to date precipitation T 1.31  
Sea Level Pressure  
Sea Level Pressure 30.20 in    
Wind  
Wind Speed 12 mph (West)    
Max Wind Speed 32 mph    
Max Gust Speed 39 mph    
Visibility 10 miles    
Events      
T = Trace of Precipitation, MM = Missing Value Source: NWS Daily Summary

Daily Weather History Graph

Daily Weather History Graph

Search for Another Location

Airport:

Trip Planner

Search our weather history database for the weather conditions in past years. The results will help you decide how hot, cold, wet, or windy it might be!

Date:

Astronomy

Mar. 19, 2013 Rise Set
Actual Time 7:20 AM MDT 7:27 PM MDT
Civil Twilight 6:53 AM MDT 7:55 PM MDT
Nautical Twilight 6:20 AM MDT 8:27 PM MDT
Astronomical Twilight 5:47 AM MDT 9:00 PM MDT
Moon 12:09 PM MDT 2:21 AM MDT
Length of Visible Light 13h 02m
Length of Day
12h 06m
Waxing Crescent, 50% of the Moon is Illuminated
Mar 19
Waxing Crescent
Mar 27
Full
Apr 2
Last Quarter
Apr 10
New
Apr 18
First Quarter

Hourly Weather History & Observations

Time (MDT) Temp. Windchill Dew Point Humidity Pressure Visibility Wind Dir Wind Speed Gust Speed Precip Events Conditions
12:54 AM 28.9 °F 15.1 °F 12.0 °F 49% 30.05 in 10.0 mi West 23.0 mph 31.1 mph N/A   Clear
1:54 AM 27.0 °F 12.2 °F 3.0 °F 36% 30.06 in 10.0 mi West 24.2 mph 35.7 mph N/A   Clear
2:54 AM 25.0 °F 10.9 °F 3.9 °F 41% 30.09 in 10.0 mi West 19.6 mph - N/A   Clear
3:54 AM 24.1 °F 12.5 °F 5.0 °F 44% 30.11 in 10.0 mi West 12.7 mph - N/A   Clear
4:54 AM 23.0 °F 18.4 °F 5.0 °F 46% 30.12 in 10.0 mi SW 3.5 mph - N/A   Clear
6:54 AM 21.9 °F 8.7 °F 3.0 °F 44% 30.17 in 10.0 mi West 15.0 mph - N/A   Clear
7:54 AM 21.9 °F 9.2 °F 3.0 °F 44% 30.20 in 10.0 mi West 13.8 mph - N/A   Clear
8:54 AM 27.0 °F 18.7 °F 3.0 °F 36% 30.23 in 10.0 mi West 8.1 mph - N/A   Clear
9:54 AM 30.0 °F 21.1 °F 5.0 °F 35% 30.24 in 10.0 mi WSW 10.4 mph 19.6 mph N/A   Clear
10:54 AM 34.0 °F 22.7 °F 3.0 °F 27% 30.22 in 10.0 mi West 19.6 mph 27.6 mph N/A   Clear
11:54 AM 37.9 °F 28.5 °F -5.1 °F 16% 30.22 in 10.0 mi West 17.3 mph 25.3 mph N/A   Clear
12:54 PM 39.0 °F 31.0 °F -9.0 °F 13% 30.22 in 10.0 mi NW 13.8 mph 25.3 mph N/A   Clear
1:54 PM 41.0 °F 32.5 °F -9.9 °F 11% 30.21 in 10.0 mi WNW 17.3 mph 26.5 mph N/A   Clear
2:54 PM 42.1 °F 34.5 °F -9.9 °F 11% 30.20 in 10.0 mi West 15.0 mph 23.0 mph N/A   Clear
3:54 PM 43.0 °F 36.8 °F -9.9 °F 10% 30.20 in 10.0 mi West 11.5 mph 21.9 mph N/A   Clear
4:54 PM 44.1 °F 37.7 °F -9.0 °F 11% 30.20 in 10.0 mi West 12.7 mph - N/A   Clear
5:54 PM 42.1 °F 35.7 °F -9.0 °F 11% 30.24 in 10.0 mi WNW 11.5 mph - N/A   Clear
6:54 PM 39.9 °F 32.5 °F -9.0 °F 12% 30.25 in 10.0 mi West 12.7 mph - N/A   Clear
7:54 PM 33.1 °F 25.5 °F -9.0 °F 16% 30.29 in 10.0 mi West 9.2 mph - N/A   Clear
8:54 PM 33.1 °F 26.9 °F -9.0 °F 16% 30.27 in 10.0 mi NW 6.9 mph - N/A   Clear
9:54 PM 30.9 °F 27.5 °F -8.0 °F 18% 30.27 in 10.0 mi NNW 3.5 mph - N/A   Clear
10:54 PM 28.9 °F 22.8 °F -8.0 °F 20% 30.27 in 10.0 mi South 5.8 mph - N/A   Clear
11:54 PM 30.0 °F 25.2 °F -9.0 °F 18% 30.23 in 10.0 mi SSE 4.6 mph - N/A   Clear